ワイズ彗星

337P/WISE (2022)

English version
Home page
Updated on January 3, 2023

---------------------------------------------------------------------

・ プロフィール

・ 写真集

・ 軌道要素

Epoch 2023 Feb. 25.0 TT = JDT 2460000.5
T 2022 July 1.24750 TT                                  Rudenko
q   1.6543062            (2000.0)            P               Q
n   0.16532534     Peri.  161.09269     -0.03885692     +0.96623753
a   3.2878331      Node   106.04173     -0.94755758     +0.04528867
e   0.4968400      Incl.   15.36850     -0.31721409     -0.25364143
P   5.96
>From 377 observations 2010 Apr. 13-2022 Aug. 14, mean residual 0".4.

・ 光度変化

        m1 = 13.5 + 5 logΔ + 25.0 log r

---------------------------------------------------------------------

軌道要素はM.P.E.C. 2022-Y232に掲載されたものです。
光度グラフはComet for Windowsで作成したものです。

---------------------------------------------------------------------

Copyright(C) Seiichi Yoshida (comet@aerith.net). All rights reserved.